www.pogodaiklimat.ru

Погода и климат >> Архив погоды >> Мьянма >> Йе


ПОГОДА в Йе

  • Прогноз погоды в Йе
  • Монитор погоды в Йе

АРХИВ ПОГОДЫ в Йе

Время (UTC), дата Ветер
(напр.,м/с)
 
Видим.   Явления Облачность Т
(С)
Тd
(С)
f
(%)
Тe
(С)
Тes
(С)
Комфортность P
(гПа)
Po
(гПа)
Тmin
(С)
Tmax
(С)
R
(мм)
R24
(мм)
S
(см)
00 14.07 штиль 0 3000 м {дождь, морось} 10/6 200 м
[Cb cap Ac As]
+23.2 +23.2 100 +33 +33 очень
душно
1009.7 1008.9 +22.4 60
03 14.07 Ю 1 3000 м {дождь} 10/6 200 м
[Cb cap Ac As]
+25.2 +25.2 100 +36 +38 очень
душно
1010.5 1009.7
06 14.07 В 1 5000 м 8/5 200 м
[Cb cap Ac As]
+27.4 +25.6 90 +40 +48 очень
душно
1009.8 1009.0
12 14.07 штиль 0 3000 м 8/5 200 м
[Cb cap Ac As]
+26.2 +24.6 91 +37 +37 очень
душно
1007.9 1007.1 +29.2
00 15.07 СВ 1 3000 м дождь 10/6 200 м
[Cb cap Ac As]
+24.2 +24.2 100 +33 +33 очень
душно
1007.5 1006.7 +23.4 16
03 15.07 ЮВ 1 3000 м слаб. морось {дождь} 10/6 200 м
[Cb cap Ac As]
+24.4 +24.4 100 +34 +36 очень
душно
1008.4 1007.6
06 15.07 Ю 1 5000 м {морось} 8/5 200 м
[Cb cap Ac As]
+27.2 +25.6 91 +40 +47 очень
душно
1008.5 1007.7
09 15.07 ЮЗ 1 3000 м слаб. морось 10/6 200 м
[Cb cap Ac As]
+26.9 +25.6 93 +40 +41 очень
душно
1006.5 1005.7
12 15.07 ЮВ 1 3000 м {морось} 9/6 200 м
[Cb cap Ac As]
+26.2 +24.6 91 +37 +37 очень
душно
1006.7 1005.9 +29.0 19
00 16.07 штиль 0 3000 м {дождь, морось} 10/6 200 м
[Cb cap Ac As]
+24.4 +24.4 100 +34 +34 очень
душно
1005.8 1005.0 +23.6 11
03 16.07 Ю 1 3000 м {морось} 9/6 200 м
[Cb cap Ac As]
+25.5 +25.5 100 +37 +40 очень
душно
1008.0 1007.2
06 16.07 ЮВ 2 5000 м 8/5 200 м
[Cb cap Ac As]
+27.4 +25.6 90 +40 +47 очень
душно
1007.5 1006.7
09 16.07 Ю 1 5000 м 8/5 200 м
[Cb cap Ac As]
+28.2 +26.8 92 +44 +47 опасность
перегрева
1006.2 1005.4
12 16.07 штиль 0 3000 м 8/5 200 м
[Cb cap Ac As]
+26.0 +24.6 92 +37 +37 очень
душно
1005.0 1004.2 +30.0
00 17.07 штиль 0 3000 м 8/5 200 м
[Cu Sc Ac und]
+24.2 +24.2 100 +33 +34 очень
душно
1005.3 1004.5 +23.4
03 17.07 ЮВ 1 5000 м 8/5 200 м
[Cb cap Ac As]
+31.0 +26.7 78 +48 +53 опасность
перегрева
1006.3 1005.5
06 17.07 З 3 5000 м 8/5 200 м
[Cb cap Ac As]
+28.2 +25.0 83 +41 +46 опасность
перегрева
1006.1 1005.3
09 17.07 Ю 2 5000 м 8/5 200 м
[Cb cap Ac As]
+29.2 +25.9 82 +44 +46 опасность
перегрева
1004.7 1003.9
12 17.07 штиль 0 3000 м 8/5 200 м
[Cb cap Ac As]
+27.8 +25.0 85 +40 +40 очень
душно
1004.8 1004.0 +31.0
00 18.07 штиль 0 3000 м 9/6 200 м
[Cb cap Ac As]
+25.0 +23.3 90 +33 +34 очень
душно
1004.5 1003.7 +24.2
03 18.07 Ю 1 5000 м 6/6 200 м
[Cb cap]
+29.2 +25.9 82 +44 +50 опасность
перегрева
1006.1 1005.3
06 18.07 З 1 5000 м 5/5 200 м
[Cb cap]
+32.0 +28.1 80 +53 +65 опасность
перегрева
1005.0 1004.2
09 18.07 СЗ 2 5000 м 5/5 200 м
[Cb cap]
+33.0 +25.8 66 +48 +53 опасность
перегрева
1004.1 1003.3
12 18.07 штиль 0 3000 м 5/5 200 м
[Cb cap]
+29.8 +25.3 77 +44 +44 опасность
перегрева
1004.4 1003.6 +34.8
00 19.07 штиль 0 3000 м слаб. морось 10/6 200 м
[Cb cap Ac As]
+25.5 +25.5 100 +37 +37 очень
душно
1005.5 1004.7 +24.7 1
03 19.07 ЮВ 1 3000 м слаб. морось {дождь} 9/6 200 м
[Cb cap Ac As]
+25.9 +24.6 93 +37 +40 очень
душно
1006.4 1005.6
06 19.07 ЮЗ 2 3000 м слаб. морось 9/6 200 м
[Cb cap Ac As]
+31.0 +26.7 78 +48 +52 опасность
перегрева
1006.2 1005.4
09 19.07 ЮЗ 1 3000 м {морось} 9/6 200 м
[Cb cap Ac As]
+28.5 +26.8 91 +45 +47 опасность
перегрева
1005.2 1004.4
12 19.07 штиль 0 3000 м 8/5 200 м
[Cb cap Ac As]
+27.2 +25.6 91 +40 +40 очень
душно
1005.7 1004.9 +32.8 21
00 20.07 штиль 0 3000 м 9/6 200 м
[Cb cap Ac As]
+24.9 +23.3 91 +33 +34 очень
душно
1006.5 1005.7 +24.1
03 20.07 Ю 1 5000 м 5/5 200 м
[Cb cap]
+29.2 +25.9 82 +44 +52 опасность
перегрева
1008.4 1007.6
06 20.07 СЗ 1 5000 м 4/4 600 м
[Cu Sc]
+32.4 +28.1 78 +53 +68 опасность
перегрева
1007.3 1006.5
09 20.07 З 2 5000 м гроза без осадков 6/4 200 м
[Cb cap Ac As]
+31.0 +26.7 78 +48 +52 опасность
перегрева
1006.0 1005.2
12 20.07 штиль 0 3000 м {гроза} 8/5 200 м
[Cb calv Ac As]
+28.0 +26.8 93 +44 +44 опасность
перегрева
1006.1 1005.3 +34.2

 

Местоположение метеостанции Йе (Мьянма): широта 15.25 долгота 97.87 высота над уровнем моря 7 м.

В архиве по умолчанию представлена погода в Йе за последнюю неделю. Архивные данные за месяц целиком и за предыдущие месяцы, начиная с января 2011 года, Вы можете получить, выбрав интересующий диапазон дат из раскрывающегося списка и нажав кнопку "Ввод!".


*Определитесь, кто Вы:
робот инопланетянин человек

Внимание! Время в таблицах - всемирное. Для получения местного времени необходимо прибавить поправку, которая равна 6.5 ч.

Смотрите также архив погоды в соседних городах и на ближайших метеорологических станциях:

Погода в Тхонг Пха Пхум (Таиланд) (99 км)
Погода в Тавое (Мьянма) (133 км)
Погода в Умпханге (Таиланд) (137 км)
Погода в Моламьяйне (Мьянма) (142 км)
Погода в Пхаане (Мьянма) (168 км)
Погода в Мэй Сот (Таиланд) (174 км)
Погода в Дои Му Со Агромете (Таиланд) (202 км)
Погода в Кампхэнгпхете (Таиланд) (224 км)
Погода в Канчанабури (Таиланд) (225 км)
Погода в Таке (Таиланд) (227 км)

Пояснения к столбцам:

Ветер - указаны скорость ветра в м/с - средняя за 10 мин, порывы в срок и между сроками (в фигурных скобках) и направление, откуда дует ветер: С - северный, СВ - северо-восточный, В - восточный, ЮВ - юго-восточный, Ю - южный, ЮЗ - юго-западный, З - западный, СЗ - северо-западный.
Видимость - горизонтальная дальность видимости в метрах или километрах. При видимости от 1 до 10 км при отсутствии осадков обычно наблюдается дымка, при ухудшении видимости до 1 км и менее - туман. В сухую погоду видимость может ухудшаться дымом, пылью или мглою.
Явления - указаны атмосферные явления, наблюдавшиеся в срок или в последний час перед сроком; фигурными скобками обозначены явления, наблюдавшиеся между сроками (за 1-3 часа до срока); квадратными скобками обозначены град или гололедные отложения с указанием их диаметра в мм.
Облачность - указаны через наклонную черту общая и нижняя облачность в баллах и высота нижней границы облаков в метрах; квадратными скобками обозначены формы облаков: Ci - перистые, Cs - перисто-слоистые, Cc - перисто-кучевые, Ac - высококучевые, As - высокослоистые, Sc - слоисто-кучевые, Ns - слоисто-дождевые, Cu - кучевые, Cb - кучево-дождевые. Подробнее классификацию облаков см. в Атласе облаков (PDF).
T - Температура воздуха - температура, измеренная на высоте 2 м над землей.
Td - Температура точки росы - температура, при понижении до которой содержащийся в воздухе водяной пар достигнет насыщения.
f - Относительная влажность воздуха - влажноcть воздуха, измеренная на высоте 2 м над землей.
Te - Эффективная температура - температура, которую ощущает одетый по сезону человек в тени. Характеристика душности погоды. При расчете учитывается влияние влажности воздуха и скорости ветра на теплоощущения человека.
Tes - Эффективная температура на солнце - температура, которую ощущает человек, с поправкой на солнечный нагрев. Характеристика знойности погоды. Зависит от высоты солнца над горизонтом, облачности и скорости ветра. Ночью, в пасмурную погоду, а также при ветре 12 м/с и более поправка равна нулю.
P - Атмосферное давление - приведенное к уровню моря атмосферное давление.
Po - Атмосферное давление - измеренное на уровне метеостанции атмосферное давление.
Tmin - Минимальная температура - минимум температуры воздуха на высоте 2 м над землей.
Tmax - Максимальная температура - максимум температуры воздуха на высоте 2 м над землей.
R - Количество осадков - Количество выпавших осадков за период времени, мм. При наведении курсора мыши на число - период времени, за который выпало указанное количество осадков.
R24 - Количество осадков - Количество выпавших осадков за 24 часа, мм.
S - Снежный покров - Высота снежного покрова, см. При наведении курсора мыши на число - состояние снежного покрова и степень покрытия местности в баллах.